Location: Ashtead
(51.3000°N, 0.3000°W)
Time: 19:46:06
(UTC+00:00)

Cosmos 1933 - Pass Details

Date: 26 September 2023
Orbit: 536 x 548 km, 82.5° (Epoch: 08 December)

Event Time Altitude Azimuth Distance (km) Brightness Sun altitude
Exits shadow 01:57:23 - 87° (E) 1,886 6.5 -33.4°
Enters shadow 03:03:22 -55° 188° (S) 11,066 9.9 -25.9°
Maximum altitude 03:33:27 84° 100° (E) 548 3.2 -21.9°
